sat.trackr.live / text

‹ back to catalog

STARLINK-35564

NORAD 67420 · 2026-005S

PAYLOAD ACTIVE UNKNOWN

§ Identity

Operator
Country
US
Launch date
2026-01-12
Launch site
AFETR
Launch vehicle
Mass (kg)
RCS (m²)

Purposes: comms

External: N2YO · Heavens-Above · Gunter

§ Orbital elements

Epoch: 2026-09-19T22:32:28.053312Z

Period
94.27 min
Inclination
42.9999°
Eccentricity
0.0001026
Mean motion
15.27587896 rev/d
Perigee alt
482.3 km
Apogee alt
483.7 km
Semi-major
6,861.2 km
B*
2.6906e-4
RAAN
221.0341°
Arg perigee
285.9586°
Mean anomaly
74.1153°
Rev number
3,840

§ Raw data

STARLINK-355641 67420U 26005S   26262.93921358  .00007151  00000+0  26906-3 0  99992 67420  42.9999 221.0341 0001026 285.9586  74.1153 15.27587896 38402

JSON: /api/v1/satellites/67420 · /tle

For live sub-satellite position, see the globe view (requires WebGL).

§ Visibility from observer

Set your observer location to see the next 7 days of passes ≥ 10°. The values pass through the URL so the page stays shareable.

No JS? Fill the form by hand. The geolocation button needs JavaScript.